Wind_Speed
32 31 30 32 26 31 31 29 30 31 31 31 29 28 27 25 25 24 25 26 25 25 28 29 29 28 26 25 18 23 20 15 12 11 8 9 10 2 7 18 15 11 13 12 14 10 17
33 31 31 33 33 30 29 33 31 31 31 32 30 30 30 29 27 26 24 25 23 23 26 28 29 29 30 28 20 22 17 14 12 13 10 13 10 5 22 17 12 13 11 16 14 10 13
28 29 35 36 35 34 34 32 34 34 34 34 33 31 30 31 30 29 26 24 24 22 24 27 27 30 31 21 20 25 16 12 14 14 11 12 9 18 15 12 10 11 14 17 13 18 13
37 36 34 33 32 39 36 36 35 36 36 35 34 34 33 32 31 29 27 25 24 24 23 27 26 29 33 20 23 23 18 16 14 16 15 12 17 23 18 11 12 11 11 18 11 14 16
35 34 36 36 36 38 37 37 36 36 36 36 37 37 36 34 33 31 28 25 23 25 25 26 26 27 29 21 21 19 21 18 15 18 17 18 20 19 17 12 13 13 20 15 23 17 16
33 33 32 33 33 34 35 35 34 34 35 36 38 37 38 37 37 33 29 25 24 27 27 28 28 27 18 15 12 15 19 21 18 19 19 19 19 17 17 13 20 14 14 11 9 9 13
32 32 32 31 31 31 32 32 33 32 32 34 35 36 36 37 37 35 31 27 26 28 32 30 25 23 17 16 9 12 15 19 20 17 24 19 19 24 18 16 16 17 21 22 15 15 16
33 33 33 32 32 31 31 31 32 32 31 31 31 31 33 35 34 31 33 28 24 28 36 32 30 31 22 16 21 14 14 22 26 26 21 19 28 21 14 14 22 26 26 21 20 8 8
35 35 34 34 33 32 33 32 32 32 31 30 31 30 29 30 26 26 30 27 23 28 38 40 33 36 28 27 26 16 16 18 28 28 26 26 25 15 17 19 22 23 24 17 16 3 10
36 36 37 36 35 35 35 34 33 32 30 30 29 29 29 27 22 20 22 25 23 26 25 42 35 40 34 32 37 23 21 20 27 31 27 31 25 20 26 29 21 25 16 16 17 12 12
37 37 37 37 37 38 38 35 33 32 31 30 29 27 29 24 22 13 18 20 24 15 6 8 8 11 16 36 33 27 26 29 33 31 29 36 28 30 27 22 17 22 15 17 9 11 15
38 38 37 37 37 38 38 36 34 33 33 32 28 26 29 25 15 9 11 18 20 12 12 7 11 17 18 21 29 26 17 35 34 31 32 32 24 28 29 22 21 19 22 17 14 13 12
39 38 38 37 36 36 36 34 34 33 32 31 29 26 25 28 14 19 20 23 19 17 13 18 11 17 19 21 23 26 18 41 37 34 39 35 36 30 27 24 23 22 20 5 3 6 7
43 40 38 38 36 34 34 34 32 32 31 31 27 23 24 23 21 18 30 29 16 28 36 9 16 13 18 21 22 22 32 29 43 36 12 31 29 35 28 30 23 25 23 11 4 2 4
43 42 41 38 36 34 33 33 33 32 29 24 21 23 23 19 25 24 33 35 31 32 24 36 13 18 15 20 17 21 28 42 32 46 35 21 36 20 31 28 27 28 27 25 23 5 1
41 41 41 38 35 34 34 33 32 33 29 23 25 25 28 14 28 31 28 41 47 45 40 17 26 20 19 12 16 21 21 16 32 35 44 38 21 34 30 29 28 30 24 19 22 4 4
41 42 41 38 36 34 34 33 31 31 29 25 27 29 32 19 30 38 45 52 47 46 34 45 31 27 24 23 19 14 16 26 17 30 36 40 36 28 24 36 34 32 28 26 18 21 4
43 42 40 38 37 36 36 36 33 31 29 30 34 38 31 28 37 47 54 52 49 23 24 42 49 41 32 25 28 22 21 28 8 20 36 40 28 37 44 24 18 35 35 30 18 10 11
45 41 40 40 40 39 38 37 38 37 35 36 40 43 41 33 46 53 51 51 48 43 35 22 37 38 38 32 30 21 26 28 31 22 12 38 42 35 28 37 30 37 40 32 32 31 27
43 42 42 43 43 42 43 42 40 40 38 42 45 42 43 48 48 49 51 52 51 42 44 40 34 25 33 30 32 33 37 32 30 30 21 20 45 41 36 23 29 26 32 36 32 29 28
43 43 44 44 43 42 41 40 38 37 39 46 54 50 55 57 65 57 49 46 50 50 37 25 41 39 43 32 32 31 36 36 30 31 20 19 26 51 46 38 28 26 38 33 34 33 33
44 44 45 43 41 39 33 38 40 40 44 54 60 66 56 64 49 53 49 57 56 49 40 38 34 35 41 40 39 34 30 34 31 37 31 23 25 29 30 43 43 38 29 30 40 31 28
42 38 36 33 33 32 33 34 37 37 50 51 62 66 53 56 47 47 61 61 57 46 30 23 33 25 36 50 28 32 32 33 32 32 22 21 16 29 34 25 35 35 47 33 32 36 27
35 35 36 37 38 38 39 39 39 42 53 60 60 65 66 45 54 64 62 55 56 44 41 27 18 32 37 30 29 27 28 26 30 31 38 41 24 15 29 32 9 40 40 41 29 36 36
36 38 37 36 36 38 39 40 41 43 50 60 51 67 61 60 44 54 60 53 44 47 40 41 31 28 21 19 35 31 28 27 31 35 30 29 22 9 14 29 19 32 21 22 34 35 30
34 35 36 38 38 39 41 40 42 46 50 58 57 53 35 55 50 62 52 55 51 42 44 40 39 29 23 24 30 31 23 24 15 16 21 32 34 11 14 15 17 26 27 24 16 32 29
32 33 36 38 39 39 41 40 41 42 50 55 57 65 56 46 41 51 48 51 46 46 39 36 36 34 33 33 25 35 30 26 12 12 13 17 25 29 25 12 17 14 20 22 22 17 18
26 28 32 36 40 40 41 43 46 46 45 53 56 62 61 47 24 47 50 38 37 35 43 42 35 38 34 30 30 20 26 25 21 25 21 19 11 16 10 15 11 10 20 28 30 23 23
25 24 26 28 29 33 37 41 44 47 49 50 55 53 46 45 38 31 43 42 35 34 34 36 37 38 27 31 34 32 24 23 39 31 23 23 18 13 14 12 9 17 16 21 24 23 12
Wind_Direction
283 283 290 268 281 278 280 277 273 272 272 274 274 276 277 278 277 274 274 275 272 273 273 274 273 272 270 266 271 267 274 272 267 254 257 219 207 149 311 295 296 256 281 282 284 296 310
278 282 283 278 274 268 278 271 272 276 277 272 270 271 271 273 273 274 274 276 275 273 272 273 273 272 271 266 271 269 254 255 255 239 239 226 192 262 274 274 277 283 285 280 272 279 282
272 276 279 284 278 272 269 266 268 262 258 263 272 267 266 266 267 271 272 276 279 277 275 275 274 270 265 274 268 263 265 237 241 225 227 218 209 250 254 242 238 264 295 277 271 281 243
268 266 267 260 265 280 271 268 263 265 265 264 263 261 262 263 264 264 267 271 277 279 277 276 279 273 267 271 254 257 261 243 234 223 222 190 234 241 239 244 256 272 274 273 299 242 257
275 274 274 272 270 270 271 268 267 266 264 263 262 261 260 260 261 261 263 267 273 274 277 276 278 277 274 273 265 246 241 239 225 225 226 212 233 250 241 252 282 263 266 277 295 256 279
279 278 275 275 273 272 271 269 268 267 266 265 263 260 259 258 257 256 259 262 268 272 273 271 272 276 264 272 253 242 229 227 216 218 226 230 237 250 239 235 253 264 275 302 304 249 289
278 278 277 274 273 271 270 271 270 268 267 266 265 265 263 259 256 255 255 256 264 266 262 259 256 253 254 252 226 235 222 219 208 215 227 229 239 239 233 231 253 276 286 292 300 283 246
279 279 278 277 275 273 271 269 268 268 268 270 270 268 266 264 261 257 252 250 260 270 266 262 258 262 243 222 237 217 218 210 199 209 229 223 241 244 242 244 257 266 273 279 284 222 252
278 277 278 277 277 276 275 273 271 269 268 268 270 272 271 270 270 259 250 244 240 255 267 261 256 258 252 223 237 214 205 219 214 207 218 226 239 241 237 245 259 262 270 278 274 313 239
275 277 278 278 278 276 274 272 270 270 268 267 268 267 269 271 271 265 251 235 240 256 284 276 276 256 241 227 239 219 208 228 217 222 217 231 243 243 247 262 251 261 261 261 266 281 256
272 275 276 276 276 275 272 268 268 270 270 267 266 265 260 262 266 273 249 221 226 245 301 271 268 248 229 225 233 232 228 211 230 217 216 226 229 237 248 254 241 257 262 261 253 281 287
271 274 274 274 271 266 263 262 264 270 273 273 265 265 254 248 251 230 218 184 197 193 241 231 236 213 211 224 216 225 213 216 223 230 226 232 245 232 241 248 249 242 255 265 285 269 291
267 271 272 275 273 264 256 254 258 259 261 265 270 263 257 242 217 215 185 183 179 212 230 235 210 208 220 222 233 216 200 201 206 215 229 227 233 241 237 243 241 240 257 205 267 257 233
266 268 272 275 268 259 253 251 254 254 257 257 263 257 254 244 210 212 183 190 222 230 211 165 193 204 216 228 228 236 212 220 213 218 232 228 242 229 228 233 233 231 244 213 220 214 269
266 266 270 274 266 256 250 250 251 250 251 246 243 242 250 236 203 201 187 205 223 225 234 221 214 285 278 228 231 229 227 225 223 215 217 221 235 236 233 231 226 231 247 234 244 258 209
269 268 269 269 262 257 251 250 251 246 242 235 234 238 245 235 196 192 202 215 239 240 222 209 253 257 266 248 230 221 229 248 228 225 225 228 253 232 232 233 233 232 234 226 230 156 225
274 273 271 265 260 255 251 250 249 242 233 223 229 233 241 212 199 194 209 230 242 238 238 231 237 253 252 280 270 290 260 248 232 229 227 228 235 243 236 229 229 223 231 237 234 231 197
277 274 268 263 259 256 252 249 245 236 222 218 224 226 234 212 197 210 226 226 238 232 241 238 233 245 250 254 279 291 283 250 213 243 222 227 238 242 248 230 241 227 227 235 214 197 229
279 272 266 262 258 256 253 250 242 234 222 217 220 223 228 221 214 222 237 240 241 239 221 231 235 233 240 250 277 276 281 262 254 264 277 230 230 240 258 249 232 230 225 228 234 242 228
276 271 266 262 259 256 253 248 240 231 220 213 219 214 216 223 232 236 241 243 238 240 243 231 230 234 236 244 255 272 279 282 272 250 244 265 224 228 230 240 231 225 219 232 242 235 240
277 272 268 264 260 256 253 250 238 229 217 211 216 215 217 208 227 224 229 237 245 238 236 246 233 229 219 239 238 253 267 274 282 240 252 269 253 228 233 233 230 231 228 232 242 243 236
277 273 269 265 260 255 242 227 227 220 209 215 216 217 219 223 224 223 220 233 237 243 238 233 240 235 223 234 225 243 272 272 283 256 264 252 274 242 241 231 231 234 239 230 240 238 242
274 269 265 256 246 239 233 230 224 218 204 215 220 221 220 224 220 214 227 235 237 234 225 241 240 246 232 221 250 259 274 268 274 268 269 279 292 243 248 226 220 239 236 248 242 243 255
268 264 260 257 254 249 242 232 223 216 207 210 222 225 221 219 217 224 233 234 236 232 237 223 237 232 240 240 238 263 266 260 263 267 272 274 313 251 222 226 219 243 240 240 248 237 247
268 266 264 258 253 250 247 242 232 219 210 210 222 221 220 219 227 228 230 234 240 234 238 230 212 229 252 247 238 257 258 260 262 259 256 254 283 246 223 214 233 242 230 236 234 246 251
274 270 265 260 255 249 241 235 229 220 211 213 222 217 219 221 218 228 231 233 233 232 233 230 226 216 216 231 235 243 246 259 259 259 243 251 261 320 302 215 217 238 214 221 239 250 243
275 270 266 260 254 246 239 231 226 224 214 210 217 220 231 217 225 219 221 230 233 232 239 236 222 218 212 229 233 227 230 240 262 288 238 220 225 273 277 258 244 245 234 222 229 244 251
274 273 267 260 255 245 234 231 224 221 215 211 214 220 223 222 228 215 215 220 227 225 229 239 224 222 227 230 233 230 221 225 224 237 243 237 206 228 286 222 247 185 214 221 236 239 265
279 283 276 260 247 235 227 224 219 216 207 208 211 218 218 220 226 220 224 225 211 232 234 231 229 217 220 215 226 226 223 232 240 247 258 242 237 248 275 242 188 213 239 217 219 246 254
Height
3105 3101 3100 3103 3104 3106 3108 3107 3108 3108 3109 3110 3109 3111 3112 3113 3113 3113 3113 3113 3112 3112 3112 3112 3112 3112 3114 3112 3117 3114 3117 3117 3118 3118 3119 3118 3118 3119 3119 3119 3118 3118 3119 3120 3120 3120 3117
3100 3096 3096 3095 3097 3098 3100 3099 3100 3102 3103 3104 3103 3104 3105 3107 3107 3108 3107 3108 3108 3107 3106 3106 3105 3107 3107 3106 3109 3110 3111 3112 3114 3114 3116 3116 3116 3118 3117 3116 3116 3115 3116 3116 3117 3118 3116
3090 3091 3091 3089 3090 3089 3090 3091 3092 3094 3094 3097 3096 3097 3098 3100 3100 3101 3102 3103 3103 3102 3102 3100 3099 3099 3101 3105 3105 3102 3108 3107 3109 3111 3112 3114 3114 3115 3114 3113 3113 3112 3113 3113 3112 3113 3114
3083 3083 3081 3082 3084 3082 3081 3082 3083 3084 3085 3086 3086 3088 3091 3092 3093 3094 3096 3097 3098 3097 3096 3094 3093 3092 3091 3098 3097 3099 3101 3104 3105 3107 3109 3109 3110 3110 3112 3113 3112 3112 3111 3110 3109 3110 3110
3073 3073 3073 3073 3073 3073 3074 3074 3075 3075 3076 3077 3078 3080 3082 3084 3086 3088 3089 3091 3092 3091 3090 3088 3088 3087 3088 3090 3091 3093 3095 3099 3100 3103 3105 3107 3107 3107 3110 3110 3110 3108 3107 3107 3107 3109 3108
3065 3064 3064 3064 3064 3065 3066 3066 3066 3067 3068 3068 3069 3071 3073 3075 3078 3080 3083 3085 3087 3084 3083 3082 3082 3085 3086 3085 3087 3087 3090 3094 3095 3099 3101 3103 3104 3104 3105 3108 3105 3102 3104 3105 3105 3105 3107
3057 3057 3056 3056 3056 3057 3057 3058 3058 3059 3060 3061 3061 3062 3064 3066 3068 3073 3078 3080 3082 3079 3074 3075 3075 3076 3079 3080 3081 3083 3085 3089 3091 3094 3096 3099 3101 3098 3101 3103 3102 3102 3103 3103 3104 3103 3103
3049 3048 3048 3048 3048 3049 3049 3050 3050 3052 3053 3054 3055 3056 3056 3058 3060 3067 3070 3075 3075 3070 3064 3067 3068 3067 3074 3076 3074 3078 3081 3085 3086 3086 3093 3097 3091 3096 3099 3099 3100 3100 3101 3100 3101 3101 3101
3041 3040 3040 3040 3040 3040 3040 3042 3042 3043 3045 3046 3046 3047 3048 3050 3055 3059 3061 3069 3070 3066 3058 3054 3062 3060 3067 3071 3069 3074 3078 3080 3082 3084 3087 3088 3086 3093 3095 3096 3097 3096 3096 3098 3100 3100 3101
3032 3032 3032 3031 3031 3032 3032 3033 3034 3035 3037 3039 3040 3040 3041 3044 3050 3052 3055 3061 3065 3062 3059 3043 3050 3045 3054 3061 3060 3070 3070 3077 3078 3080 3083 3084 3085 3089 3091 3092 3095 3093 3094 3095 3096 3097 3097
3023 3023 3023 3023 3023 3023 3023 3024 3026 3027 3029 3031 3033 3034 3035 3039 3042 3049 3049 3057 3058 3065 3064 3043 3040 3039 3045 3048 3055 3063 3068 3069 3070 3075 3080 3074 3080 3084 3085 3087 3091 3090 3092 3092 3092 3093 3093
3014 3015 3014 3014 3014 3015 3015 3016 3018 3019 3020 3022 3026 3028 3029 3033 3041 3045 3047 3052 3055 3064 3046 3036 3035 3034 3041 3044 3050 3056 3059 3063 3068 3072 3072 3073 3078 3079 3081 3084 3086 3088 3089 3089 3089 3089 3089
3004 3005 3005 3004 3004 3004 3006 3008 3011 3013 3015 3016 3017 3021 3023 3025 3037 3036 3044 3049 3054 3044 3035 3031 3033 3034 3038 3042 3045 3050 3053 3055 3058 3065 3063 3069 3068 3074 3077 3080 3082 3083 3086 3086 3089 3089 3088
2992 2993 2994 2994 2994 2995 2997 3000 3003 3005 3008 3010 3012 3014 3017 3021 3029 3032 3038 3043 3038 3019 3023 3027 3033 3035 3034 3038 3042 3044 3048 3049 3054 3058 3060 3064 3064 3067 3070 3073 3077 3078 3081 3082 3087 3090 3084
2980 2981 2982 2982 2983 2985 2988 2991 2994 2997 3000 3004 3007 3008 3009 3017 3022 3027 3032 3030 3018 3014 3021 3026 3028 3030 3031 3035 3038 3041 3041 3044 3047 3052 3056 3057 3056 3064 3065 3070 3074 3074 3074 3079 3080 3081 3080
2967 2968 2969 2970 2971 2974 2977 2981 2984 2988 2993 2997 2999 3001 3003 3012 3017 3021 3024 3017 3005 3009 3020 3026 3025 3027 3027 3031 3036 3037 3039 3038 3043 3047 3053 3052 3055 3057 3061 3066 3067 3068 3073 3074 3074 3080 3081
2954 2954 2955 2956 2959 2962 2966 2970 2974 2979 2985 2991 2992 2993 2995 3007 3010 3013 3006 2992 2995 3004 3013 3019 3017 3021 3022 3024 3030 3033 3033 3036 3040 3043 3047 3050 3053 3052 3056 3055 3059 3063 3064 3068 3070 3073 3075
2940 2940 2941 2943 2946 2950 2953 2958 2963 2969 2976 2981 2984 2984 2988 2998 3001 2997 2985 2985 2994 3000 3006 3010 3015 3016 3018 3021 3022 3025 3028 3033 3034 3040 3040 3044 3048 3049 3045 3050 3052 3054 3058 3061 3061 3066 3066
2925 2926 2927 2929 2932 2936 2940 2945 2950 2957 2964 2971 2973 2977 2982 2986 2983 2977 2979 2980 2987 2992 3000 3004 3008 3011 3017 3019 3025 3022 3024 3025 3027 3030 3031 3038 3036 3041 3043 3043 3043 3044 3050 3053 3056 3057 3058
2910 2910 2912 2914 2917 2921 2925 2929 2935 2942 2951 2959 2964 2965 2971 2969 2969 2968 2968 2969 2979 2985 2989 2997 3000 3007 3011 3014 3018 3016 3014 3017 3021 3024 3025 3026 3026 3026 3024 3033 3039 3040 3042 3045 3048 3048 3051
2894 2895 2896 2898 2900 2903 2908 2913 2919 2928 2937 2945 2945 2943 2945 2947 2943 2957 2969 2968 2971 2977 2983 2988 2993 2997 2999 3009 3011 3014 3015 3012 3015 3018 3020 3021 3020 3021 3023 3030 3035 3036 3038 3039 3040 3042 3042
2878 2878 2879 2880 2883 2887 2893 2900 2906 2914 2924 2927 2927 2931 2935 2940 2947 2955 2961 2954 2958 2966 2977 2982 2984 2991 3001 3001 3001 3008 3013 3008 3009 3012 3016 3017 3015 3017 3016 3022 3027 3029 3030 3031 3034 3037 3037
2863 2863 2864 2866 2870 2874 2879 2884 2891 2899 2908 2911 2917 2923 2929 2928 2938 2947 2939 2934 2946 2968 2974 2978 2982 2989 2990 2988 3004 3006 3006 3005 3005 3008 3010 3014 3011 3011 3009 3016 3020 3020 3016 3024 3027 3029 3032
2848 2849 2851 2853 2856 2860 2865 2871 2877 2885 2891 2899 2903 2911 2917 2918 2925 2923 2931 2941 2948 2959 2966 2977 2980 2982 2981 2998 3000 3000 3001 3002 3000 3003 3007 3007 3008 3005 3004 3012 3012 3002 3010 3018 3020 3023 3026
2835 2835 2837 2839 2842 2846 2851 2856 2863 2872 2880 2885 2889 2899 2901 2909 2915 2924 2931 2936 2946 2957 2962 2968 2969 2978 2987 2991 2993 2996 2996 2997 2997 2997 3002 3000 3006 2998 3000 3000 3005 3001 3007 3011 3013 3015 3018
2821 2821 2822 2824 2826 2830 2834 2840 2847 2857 2869 2876 2879 2888 2895 2902 2901 2916 2923 2931 2939 2947 2956 2958 2965 2974 2981 2983 2988 2989 2989 2989 2991 2990 2992 2991 2998 3001 2999 2995 2995 2993 3002 3009 3008 3003 3012
2808 2807 2807 2808 2811 2814 2820 2827 2835 2844 2855 2865 2871 2878 2888 2894 2901 2911 2915 2922 2933 2942 2948 2953 2959 2967 2972 2973 2978 2980 2984 2988 2983 2983 2988 2994 2992 2995 2998 2994 2989 2991 2999 3005 3003 3004 3007
2795 2794 2792 2792 2794 2797 2804 2812 2821 2832 2843 2853 2862 2868 2879 2889 2898 2903 2912 2919 2926 2934 2938 2944 2957 2958 2962 2967 2971 2975 2977 2983 2983 2990 2987 2988 2989 2991 2988 2990 2990 2990 2994 2999 2998 3002 3005
2785 2781 2778 2777 2778 2782 2789 2798 2807 2820 2832 2845 2854 2861 2878 2888 2896 2901 2907 2916 2920 2929 2934 2938 2943 2950 2954 2958 2962 2967 2972 2976 2980 2983 2984 2982 2980 2980 2982 2982 2983 2986 2986 2988 2991 2994 2995